Starlink 34524

operational
NORAD ID: 64431 Int'l Des: 2025-129 Owner: SPXS Country: US Constellation: starlink
LEOCIRCULAR

Starlink 34524について

説明を読み込み中...

リアルタイム位置

3D地球を読み込み中...

次回通過

高度履歴

Altitude vs Time

uPlot chart will show altitude changes over time

軌道要素

1 64431U 25129V 25342.99295015 .00002515 00000-0 21843-3 0 9997
2 64431 70.0021 303.0606 0002949 271.3370 88.7451 14.98334814 27642
Epoch: Dec 8, 2025 • Age: 8 hours

現在のステータス

高度 584.8 km
速度 7.57 km/s
衛星直下点 66.03°N, 135.2°W
打ち上げ日 Jun 17, 2025
運用期間 0.4 years
タイプ internet

技術仕様

分類 Payload
質量 575.00 kg
乾燥質量 530.00 kg
総質量 575.00 kg
長さ 0.30 m
直径 4.10 m
スパン 29.00 m
形状 Box + pan
製造者 SPXS
バスタイプ Starlink V2MO
フェーズステータス In Orbit
所有者/国 SPXS/US

大規模コンステレーション

Loading constellations...